GFSNW_con_3kmhel_024.txt.gz
Helicity
121 132 160 165 144 109 54 72 94 61 68 57 50 67 79 73 59 42 46 47 49 33 31 26 23 24 14 6 -4 8 14 25 43 75 98 85 84 98 99 93 99 113 124 82
111 121 152 175 150 100 63 78 76 64 56 62 71 71 86 86 60 67 51 47 45 33 34 38 45 32 22 3 4 13 32 43 50 77 89 100 115 116 137 126 147 98 119 83
109 112 139 160 144 87 77 84 106 72 48 59 47 68 73 83 95 66 69 59 49 58 63 56 46 35 21 12 25 30 31 62 68 75 85 141 136 93 98 99 162 106 101 59
107 118 127 139 125 83 74 111 94 103 68 65 61 88 69 67 72 61 68 65 42 52 59 57 39 36 41 42 48 55 55 80 95 77 66 85 126 79 71 101 99 151 50 48
105 125 143 143 118 71 72 90 82 90 100 95 72 97 64 53 75 72 70 64 81 66 55 35 38 46 34 59 78 99 103 117 118 109 90 90 117 99 85 56 24 42 47 40
103 127 148 161 129 75 63 62 66 96 109 93 80 77 75 66 83 112 95 73 83 83 68 71 74 65 78 92 103 118 117 143 155 162 133 80 100 47 97 100 56 70 76 75
104 125 152 151 128 90 63 63 66 83 99 94 91 75 92 75 92 75 84 80 68 63 70 71 68 90 92 83 109 135 166 206 210 221 139 131 185 90 72 22 4 41 48 73
103 131 147 145 132 85 66 62 73 74 100 100 91 88 91 102 99 103 88 98 79 55 52 68 84 82 97 100 138 133 149 227 255 238 194 115 47 118 78 77 24 54 86 120
98 131 148 148 135 96 84 87 80 76 77 75 95 94 60 83 92 98 101 97 82 69 83 92 108 104 86 91 122 173 211 200 223 225 193 172 139 117 58 45 44 174 129 102
95 117 141 149 156 128 78 88 91 80 92 76 92 100 81 96 108 99 101 90 96 99 112 125 120 101 100 100 136 169 232 239 210 161 187 140 88 79 131 117 186 129 89 121
96 106 128 150 160 135 96 93 109 91 91 74 81 86 89 101 95 104 94 117 109 138 145 133 109 98 82 117 163 176 196 228 191 176 170 66 120 109 119 108 103 102 113 196
105 118 128 144 159 144 109 101 115 127 107 89 96 103 109 115 106 120 108 136 104 114 159 121 118 118 133 152 191 203 197 156 179 180 167 88 70 91 89 115 109 193 194 148
108 110 129 146 158 160 114 108 118 118 107 109 98 96 92 106 120 125 135 142 147 136 145 129 146 160 168 210 194 157 174 142 195 143 112 47 95 69 212 179 158 164 67 86
104 97 107 133 156 162 128 122 126 131 112 109 100 93 108 119 98 99 123 126 169 170 157 182 195 198 156 239 216 227 142 119 116 103 77 41 99 171 210 200 161 74 33 -17
97 94 92 104 132 145 139 135 144 141 131 77 87 110 129 147 123 95 105 118 161 168 198 223 204 221 246 282 296 265 124 94 151 172 152 154 218 265 197 140 74 75 53 89
101 103 96 95 103 124 139 126 113 141 144 125 105 133 150 158 135 110 117 129 152 181 191 217 235 243 209 198 254 174 129 115 159 174 205 230 246 159 62 87 65 91 37 35
101 96 99 102 119 147 159 151 123 142 154 141 126 109 159 190 184 189 166 171 176 184 216 264 253 223 203 295 272 197 265 241 198 198 186 178 86 11 50 66 51 55 49 74
101 98 115 142 168 140 141 171 148 142 146 152 164 166 164 118 143 148 156 160 173 200 245 292 261 183 231 277 285 260 262 217 240 195 166 90 34 46 62 66 71 77 91 85
144 160 157 177 189 185 187 144 162 160 147 138 175 195 131 155 193 175 153 147 168 186 262 251 200 255 229 252 271 271 182 151 132 149 123 114 90 70 76 86 78 70 56 46
261 320 230 212 239 199 217 193 181 187 191 245 278 282 239 168 189 184 125 133 159 213 241 214 275 320 295 279 276 230 211 181 126 112 134 114 93 95 76 42 31 65 63 78
352 326 345 319 297 355 246 236 240 247 344 322 356 324 301 308 248 247 162 183 214 254 266 274 304 283 207 239 218 207 150 102 116 117 88 94 91 72 56 62 78 85 89 89
314 377 437 388 328 292 229 283 280 301 375 332 261 331 332 312 291 286 234 289 300 349 262 289 320 242 221 213 171 117 97 121 110 91 97 89 65 66 89 89 90 102 96 98
521 405 384 290 310 344 339 367 489 484 270 257 302 350 302 282 275 355 323 315 339 231 273 302 258 165 128 119 115 113 110 110 92 85 81 78 82 104 110 109 104 99 85 85
281 383 452 381 261 351 379 408 414 333 320 338 363 401 338 196 223 203 264 248 218 283 327 205 161 92 68 83 94 93 91 106 85 85 83 104 113 108 118 113 98 94 91 81
264 320 352 367 292 212 258 256 256 219 149 199 250 235 171 210 201 188 210 215 249 157 136 139 90 70 92 110 98 76 79 93 96 91 99 108 108 112 92 87 89 90 93 106
96 169 229 172 273 259 145 117 124 81 81 89 95 138 134 156 146 140 129 174 132 147 132 104 102 101 108 97 84 69 81 93 89 87 91 96 110 106 74 81 90 74 76 96
84 89 74 38 33 26 25 34 34 42 66 90 75 70 102 105 99 100 107 130 151 116 99 109 99 86 73 68 70 85 91 83 89 95 97 96 92 104 92 80 55 70 84 97

GFSNW_con_3kmhel_027.txt.gz
Helicity
107 132 141 138 114 92 98 92 116 82 87 109 102 86 51 59 65 45 41 61 60 34 31 27 29 24 41 28 25 11 6 3 26 35 66 39 36 59 61 91 96 156 124 102
96 127 151 159 120 68 99 123 64 91 105 88 56 55 58 62 45 47 39 40 48 35 30 29 40 42 38 30 24 17 9 24 21 71 78 86 52 95 92 104 153 95 125 105
92 118 149 175 134 92 104 95 141 94 90 122 12 26 38 65 100 66 64 53 43 44 32 38 39 44 28 29 33 26 27 36 43 58 63 81 113 93 89 132 181 96 84 39
90 111 143 173 143 102 96 118 125 111 64 56 18 17 22 49 64 59 36 51 29 43 59 53 45 41 34 29 44 49 51 52 60 59 49 69 108 99 90 73 98 127 46 22
98 113 133 155 144 100 99 101 83 104 89 69 44 69 34 37 74 47 44 40 57 53 50 38 31 31 31 45 60 71 72 94 93 86 100 109 125 82 39 40 48 69 67 50
101 124 144 147 130 81 86 76 93 102 88 72 63 60 55 61 69 112 74 72 84 136 127 122 126 111 99 92 80 79 94 105 113 138 157 124 167 149 114 99 83 91 67 41
108 123 153 144 140 103 78 83 84 109 106 75 80 73 56 60 75 84 128 102 104 93 76 76 79 86 95 70 94 92 116 124 165 164 149 165 218 69 53 77 60 48 37 62
109 120 141 144 142 129 67 73 90 86 124 103 90 75 97 102 98 88 130 145 102 56 65 77 91 84 93 90 100 79 91 136 161 175 174 165 42 195 127 100 10 43 115 156
100 126 126 145 145 144 80 82 91 82 84 112 79 85 61 87 107 106 125 120 94 86 99 100 101 100 99 116 107 97 125 152 154 214 206 226 140 127 134 59 60 174 144 96
90 117 131 142 163 159 106 83 97 90 98 96 101 92 75 93 65 107 111 107 111 92 117 125 119 117 135 122 121 100 125 140 173 171 245 155 80 99 87 113 177 139 117 178
102 112 133 146 158 155 128 86 103 109 97 86 113 114 98 102 74 102 120 129 126 140 140 126 125 148 138 139 99 94 71 118 158 211 243 146 126 108 153 130 109 172 269 155
114 123 135 148 162 158 144 84 94 124 102 88 111 112 131 174 183 123 74 132 93 104 142 139 153 175 176 149 122 102 74 121 159 212 160 85 71 106 95 146 181 173 142 127
119 126 133 146 159 169 150 93 105 94 92 86 82 94 112 114 149 163 114 135 132 118 187 163 171 169 153 174 132 86 105 80 223 176 116 86 55 121 260 214 144 118 144 105
125 127 140 151 163 161 150 117 116 116 102 94 81 85 110 121 123 129 165 164 173 204 162 194 192 192 113 172 126 132 130 105 109 115 86 92 233 233 153 51 101 138 71 40
122 129 137 154 165 172 124 126 130 136 141 75 80 102 111 120 103 91 104 104 124 165 193 212 184 169 213 222 213 188 138 79 102 143 208 204 158 155 106 96 133 95 77 110
97 107 118 135 160 182 119 112 103 130 156 118 104 113 118 108 99 98 107 112 181 163 171 178 176 212 173 212 264 209 176 157 220 159 234 159 104 104 63 90 83 67 81 82
97 97 101 130 161 164 179 181 136 163 141 144 125 92 150 185 185 192 179 237 199 157 183 194 197 185 207 299 324 164 173 223 181 206 219 190 118 120 67 63 70 94 75 78
99 103 124 131 147 146 149 169 149 168 150 163 157 151 139 129 181 174 188 182 188 166 206 236 219 233 297 288 224 159 217 214 243 243 158 115 61 70 84 115 98 88 93 95
113 138 131 154 162 177 143 122 153 170 189 160 184 195 149 164 207 197 180 176 189 212 221 229 203 273 307 250 194 202 184 210 218 143 57 155 141 154 141 109 97 78 63 77
178 227 196 204 179 158 130 164 187 195 205 227 185 233 237 182 190 199 194 174 195 185 200 190 230 320 321 223 224 226 198 174 115 84 183 167 160 132 109 77 59 80 98 98
323 321 318 291 264 265 222 254 206 208 224 182 270 299 292 286 281 271 239 220 167 161 191 267 275 282 185 205 246 217 160 137 161 185 164 130 111 96 80 75 99 101 105 94
299 300 326 307 375 302 231 257 303 226 222 302 279 360 397 390 349 332 261 305 263 245 266 315 327 273 187 151 156 143 149 160 158 128 104 100 88 88 92 99 96 103 113 106
345 337 371 341 339 364 414 399 412 421 419 322 331 381 387 394 361 314 296 310 360 359 396 427 397 221 114 104 123 129 131 152 115 116 109 96 87 104 106 108 102 116 101 89
192 222 264 307 271 308 353 497 507 395 311 341 386 427 351 418 405 345 373 450 425 452 458 360 203 99 96 106 119 131 98 136 132 109 77 90 100 99 112 126 120 117 99 89
182 180 202 261 235 207 233 317 338 376 317 325 374 459 425 482 495 460 466 446 501 397 330 191 101 82 93 126 107 102 107 114 90 72 94 108 105 107 101 109 103 93 122 107
116 134 140 179 268 333 341 338 339 311 340 370 370 415 430 449 373 376 357 387 334 215 139 92 104 106 102 94 108 89 81 81 81 89 87 90 110 122 89 101 107 102 104 109
76 107 129 149 157 165 144 143 149 106 141 221 197 222 214 169 203 204 138 162 155 107 95 109 99 75 82 77 73 82 72 79 80 78 80 91 99 121 120 96 62 78 111 136

GFSNW_con_3kmhel_030.txt.gz
Helicity
95 102 103 108 98 98 84 83 115 43 64 85 52 71 67 84 45 85 115 110 59 54 30 37 42 43 54 40 49 27 15 -1 10 51 40 27 30 47 54 112 99 148 185 155
92 108 116 114 92 70 119 96 35 46 104 102 46 112 92 65 47 55 50 60 74 75 44 46 47 44 47 49 48 21 20 19 10 93 68 54 56 107 109 138 242 145 147 124
86 108 134 132 85 39 73 95 50 95 72 168 -26 72 54 94 134 91 79 60 42 39 46 46 31 47 36 47 46 32 36 38 30 55 56 74 93 115 110 125 242 193 143 43
81 104 140 154 107 70 104 91 45 72 87 135 100 27 34 57 63 45 41 35 31 37 55 36 33 52 39 18 27 35 57 50 50 40 35 55 92 116 129 98 76 121 83 43
83 96 129 160 129 84 96 166 76 90 72 49 64 106 88 26 48 32 31 45 37 42 46 48 37 32 12 22 40 56 68 79 77 60 44 78 59 58 74 100 109 67 108 88
87 98 122 132 131 90 107 69 76 87 109 105 104 72 60 34 107 75 67 62 88 177 202 199 213 177 151 96 56 70 91 94 97 90 102 63 87 106 136 83 57 92 98 47
94 110 117 112 122 101 118 93 89 89 102 70 61 48 76 88 53 71 108 118 162 167 104 135 129 135 120 72 106 132 112 125 130 111 92 97 136 112 201 89 129 114 86 77
100 115 115 121 129 136 73 78 97 79 97 62 125 62 80 202 135 151 199 239 132 65 75 85 80 78 92 99 133 106 110 121 124 123 125 93 30 265 153 136 54 52 223 255
104 115 117 139 128 136 68 81 107 79 88 124 71 74 130 123 183 170 119 165 137 112 117 105 90 85 80 95 117 152 123 135 116 155 153 141 142 151 217 73 104 226 215 184
106 115 125 141 153 143 93 78 97 92 105 129 172 117 75 80 73 111 110 108 119 119 108 115 106 104 122 129 156 123 158 127 117 94 124 76 92 123 110 180 220 172 154 121
109 122 135 143 150 141 115 80 103 116 102 98 173 163 147 149 119 115 94 136 118 136 127 109 101 124 120 176 143 142 134 127 111 97 114 73 216 195 267 206 162 180 193 162
110 121 133 146 154 155 125 77 95 124 108 90 140 147 166 191 239 139 100 106 87 94 122 115 117 142 169 207 188 117 168 133 134 147 123 123 128 227 282 285 325 238 140 145
119 128 138 151 164 171 152 87 115 92 92 73 78 89 129 130 179 216 120 149 95 110 178 127 137 167 147 179 160 160 156 96 171 169 178 113 274 327 338 221 178 79 80 18
137 141 148 161 178 190 176 109 125 116 99 96 79 58 85 111 135 157 184 156 214 233 185 184 177 173 94 151 143 179 151 137 142 128 136 188 375 300 196 170 93 66 53 82
138 149 160 175 196 204 123 105 120 130 142 64 70 100 83 107 105 104 120 139 141 166 189 200 161 162 186 230 274 218 170 143 145 156 268 247 263 187 154 162 94 86 92 135
134 143 164 181 202 196 116 110 101 153 175 108 91 92 93 87 96 110 115 134 175 185 185 160 180 186 189 221 242 152 114 159 320 327 262 234 189 151 138 132 122 96 153 123
135 150 167 183 218 203 205 173 129 176 159 135 113 76 131 163 143 188 203 214 205 175 158 175 180 208 245 279 298 178 190 273 386 308 202 207 149 173 148 71 99 172 120 111
136 133 130 153 156 146 162 163 141 166 158 161 161 145 136 138 215 201 220 201 202 177 221 251 206 187 273 266 180 110 159 362 223 180 129 138 167 130 45 123 176 166 127 128
144 133 126 152 162 170 156 112 141 149 178 159 205 197 142 163 227 210 167 165 166 206 237 253 216 280 308 191 173 168 364 188 138 125 141 195 176 139 170 170 165 133 126 116
112 148 162 180 177 119 146 150 175 191 212 257 226 247 259 198 181 182 177 178 176 181 193 221 281 346 219 255 240 282 255 188 141 175 218 208 178 165 170 150 117 143 137 107
230 239 268 207 191 187 194 169 189 213 224 206 276 305 296 266 272 247 210 202 197 181 195 261 301 281 162 175 276 264 216 128 136 221 249 181 173 151 134 114 132 138 117 111
281 276 294 271 288 266 220 244 275 240 227 304 316 353 409 368 347 283 235 255 228 221 248 333 343 259 260 186 177 153 150 165 187 174 163 158 140 118 137 133 115 116 121 108
293 300 320 331 287 287 317 343 380 438 483 384 353 362 316 346 306 268 248 206 271 353 383 446 382 301 196 164 139 136 141 213 200 155 145 108 109 118 103 102 97 108 111 110
134 175 280 315 262 376 359 384 419 392 315 286 332 370 243 333 303 272 282 417 472 468 506 443 297 170 108 101 101 72 136 144 141 118 112 99 88 89 97 101 109 124 114 109
117 157 181 221 224 222 184 256 288 269 248 294 337 369 348 395 342 389 477 457 475 456 409 356 182 126 144 154 121 125 138 119 106 109 104 93 91 98 99 111 114 112 130 128
88 103 99 97 135 189 239 249 213 221 261 280 316 390 400 491 488 507 542 568 567 314 197 61 91 102 128 137 142 134 132 124 98 89 89 90 99 105 106 118 126 117 107 108
99 90 93 112 139 152 168 200 225 177 277 433 441 505 534 354 415 456 327 347 178 61 78 115 128 112 101 113 110 99 82 74 77 82 91 102 119 125 123 107 91 84 99 110

GFSNW_con_3kmhel_033.txt.gz
Helicity
87 121 119 112 110 98 85 93 107 77 72 98 74 45 96 25 48 76 71 114 80 85 88 89 60 40 33 72 84 29 38 9 22 29 10 8 24 54 75 126 99 140 177 118
91 120 111 106 101 83 113 91 91 75 89 85 76 120 77 42 32 73 98 149 132 149 86 73 72 58 73 80 41 6 23 24 36 34 33 14 18 82 115 178 275 254 243 79
97 123 110 98 81 61 51 127 114 119 94 71 84 81 71 88 118 130 133 81 77 90 97 70 54 51 46 48 46 52 60 47 57 49 71 87 78 70 95 150 240 238 230 169
98 126 120 97 76 51 27 83 66 54 103 50 124 47 44 82 95 93 97 69 38 67 62 55 53 61 41 37 37 50 56 71 68 63 56 59 79 69 60 66 116 215 119 123
96 125 136 102 69 58 72 164 101 94 92 108 115 39 51 72 43 73 51 52 25 87 108 91 44 45 22 19 13 50 85 68 77 64 110 115 76 37 72 80 169 189 168 147
95 118 151 110 100 79 115 99 67 87 155 92 96 95 102 66 153 91 80 64 204 269 156 191 261 215 174 69 46 76 76 86 82 63 95 80 122 102 114 109 135 203 242 211
99 112 138 133 122 108 99 122 103 80 132 87 101 65 53 113 132 117 227 212 206 156 162 161 197 248 221 139 135 105 98 112 112 95 103 124 100 122 251 190 202 173 286 375
106 116 118 141 134 131 81 98 77 66 102 94 101 92 149 295 307 249 318 271 134 95 169 129 118 120 123 147 196 163 105 136 147 144 135 97 118 194 153 180 192 163 229 215
113 117 126 136 135 154 71 98 85 71 87 147 164 98 134 215 251 228 227 216 230 158 141 131 93 69 62 78 100 188 184 160 166 177 186 128 143 208 153 188 217 196 204 192
107 114 132 141 138 151 74 86 87 85 107 158 168 178 180 162 219 179 142 144 175 148 140 123 95 88 114 106 102 115 181 168 163 184 174 98 84 108 144 227 181 268 218 163
102 109 132 149 151 150 89 94 101 69 89 143 179 225 214 162 180 131 90 180 156 160 149 109 85 89 101 151 149 123 153 166 146 172 168 109 106 203 209 244 323 296 199 144
103 111 129 149 158 168 107 106 112 97 84 68 112 152 183 202 186 121 102 85 85 108 131 109 107 122 134 147 153 153 208 140 135 177 135 99 185 253 369 325 304 240 186 199
110 122 138 157 176 202 125 93 123 99 91 119 115 133 139 185 222 183 125 128 80 128 110 104 111 115 130 144 133 182 190 174 216 235 126 239 372 425 408 343 287 176 149 192
111 130 149 168 191 223 131 99 138 96 91 98 97 84 104 129 183 169 149 130 203 192 164 140 130 126 109 142 142 196 130 170 202 225 239 315 337 323 262 241 174 101 118 152
116 131 155 176 193 203 106 113 139 129 85 54 79 99 91 115 150 141 153 153 163 182 194 179 134 137 173 206 240 203 176 181 219 189 178 242 217 231 205 154 107 117 171 222
140 150 168 188 203 173 121 114 137 170 130 100 105 79 93 111 131 138 203 181 181 173 154 144 150 174 190 198 218 158 124 138 179 251 316 320 273 189 132 128 147 183 213 175
160 164 179 202 208 163 153 95 108 196 146 125 121 90 135 141 179 216 203 204 181 164 133 155 155 176 253 266 259 213 146 242 325 320 311 296 181 160 141 149 154 226 232 209
160 164 174 179 177 161 185 181 173 160 151 161 151 128 143 166 193 183 186 182 183 217 209 231 182 189 259 239 208 144 146 347 315 240 221 200 159 138 100 128 245 249 204 176
134 144 191 210 220 200 172 179 192 152 164 170 194 186 131 174 199 188 179 188 170 191 220 221 223 208 226 163 162 189 287 272 211 185 198 188 153 210 267 265 246 189 172 162
120 180 185 181 162 171 170 158 168 181 212 229 201 213 220 189 167 176 167 174 165 185 167 186 207 247 200 168 262 297 319 272 258 293 302 305 269 251 230 194 169 158 131 121
224 227 198 164 178 174 188 187 182 187 207 189 250 280 275 271 263 234 191 191 179 157 151 181 198 231 170 226 351 359 292 304 281 259 285 270 231 202 168 157 138 125 119 110
246 189 216 207 229 199 160 180 228 211 170 282 263 296 330 348 320 263 218 249 207 199 228 269 267 270 319 300 274 254 228 226 296 269 245 205 182 153 136 112 96 99 96 89
228 281 263 230 222 204 203 254 281 282 312 279 267 258 219 256 247 271 257 238 269 301 309 340 330 281 257 221 211 244 215 238 199 154 143 139 112 104 98 74 76 86 88 92
138 145 184 213 180 282 331 341 331 337 278 231 234 256 196 240 227 250 283 317 359 359 434 409 300 261 189 161 139 113 100 103 126 121 109 98 76 60 65 76 77 92 94 94
126 129 170 180 189 187 148 171 209 220 187 203 239 277 267 298 279 322 341 338 385 387 397 362 228 140 183 144 114 111 113 106 113 95 82 69 68 78 73 75 77 97 114 123
120 130 125 97 123 130 126 129 152 143 154 187 215 276 290 358 382 376 416 444 515 444 281 38 7 43 85 135 130 120 126 88 60 60 68 65 71 72 73 87 96 108 116 104
105 112 118 94 119 108 105 102 116 124 157 215 244 298 330 287 348 389 349 424 274 45 -34 -10 24 67 94 110 118 95 59 42 53 62 59 62 70 90 114 101 116 131 101 93

GFSNW_con_3kmhel_036.txt.gz
Helicity
93 123 122 141 129 105 107 105 123 128 93 100 78 71 153 119 102 89 77 60 70 74 49 63 75 53 43 80 54 72 91 37 23 12 -1 5 21 35 59 71 72 103 166 134
97 122 125 151 130 109 111 102 123 134 91 67 90 137 109 78 63 63 74 106 89 147 97 74 76 55 60 70 64 68 106 47 46 26 22 21 36 28 75 125 125 147 196 109
100 125 133 153 122 103 115 116 148 166 114 93 61 113 111 57 84 91 105 118 143 140 122 95 40 62 71 74 64 68 82 72 29 27 44 53 59 85 112 138 172 172 186 144
104 127 133 151 118 90 122 135 138 93 105 106 110 96 69 73 69 94 96 97 81 76 84 77 56 65 78 87 83 82 71 47 78 95 91 84 77 80 70 81 119 184 121 214
108 139 145 139 117 87 94 134 117 133 109 75 99 91 57 50 73 91 95 56 96 96 76 35 34 67 58 54 75 85 97 58 100 95 114 115 82 54 99 110 115 152 263 312
117 147 147 132 127 105 61 109 103 93 147 112 127 107 44 30 113 109 102 82 165 198 85 96 140 81 69 47 57 70 78 89 101 70 118 116 97 118 109 142 143 148 204 271
120 160 147 127 132 105 61 84 87 116 180 134 103 105 115 102 139 108 123 147 158 112 82 128 215 310 252 188 170 85 79 109 115 82 117 114 129 78 132 230 163 214 283 303
124 174 165 142 152 130 61 72 52 48 149 154 157 134 103 222 298 271 207 162 123 117 148 122 133 143 130 127 145 132 99 118 124 117 119 118 149 171 153 157 121 178 227 231
128 163 173 156 173 125 88 101 66 60 81 161 143 132 128 203 195 222 243 306 198 163 140 136 109 81 79 66 75 149 183 169 152 155 152 112 118 159 172 164 128 136 212 209
135 147 167 173 166 143 91 116 99 86 107 164 171 140 145 149 183 171 184 174 153 132 130 139 119 103 115 102 87 82 150 153 147 188 158 128 89 166 128 209 97 152 185 202
128 143 147 160 154 147 94 106 98 74 101 187 187 187 166 165 152 153 128 184 151 149 148 129 106 108 119 141 123 94 107 137 129 193 202 117 108 226 205 123 194 213 244 222
128 146 156 165 164 140 88 112 120 90 103 121 141 204 216 161 108 116 125 108 89 104 139 129 120 124 122 147 127 156 154 137 127 165 134 123 131 153 222 285 290 270 259 218
122 137 157 176 183 141 70 101 116 103 111 137 143 187 219 212 179 96 125 115 90 107 99 88 103 114 115 121 105 146 127 198 190 228 160 173 224 290 291 310 294 287 254 218
112 128 152 174 199 152 94 103 118 91 97 110 115 115 144 172 171 140 108 111 179 165 144 134 120 118 91 117 135 145 119 171 185 218 245 298 272 247 255 285 270 256 196 185
114 130 151 170 184 155 122 115 139 97 78 58 111 109 138 156 150 152 160 190 184 166 159 150 108 113 149 166 193 161 171 175 197 182 148 207 163 212 261 264 224 159 172 222
125 140 152 158 141 97 107 103 112 147 96 89 96 81 121 193 162 198 213 187 172 175 150 136 132 165 173 166 194 139 132 150 147 147 205 210 217 231 237 206 133 134 235 275
131 146 169 159 121 102 101 71 86 153 110 99 106 97 140 157 163 160 163 165 145 146 141 162 169 190 211 216 217 186 140 179 227 270 315 322 234 208 178 209 228 324 298 228
139 151 159 163 160 122 150 182 195 142 122 135 120 107 129 163 158 145 138 147 167 184 177 196 158 184 229 219 173 145 204 288 276 238 231 203 212 213 178 277 285 274 226 193
152 174 180 181 177 153 141 194 175 157 141 124 150 134 84 148 163 156 149 160 164 186 206 208 209 216 211 144 141 149 175 196 212 275 275 266 283 312 351 280 226 193 171 157
183 218 210 182 174 170 172 164 154 183 214 220 186 201 182 153 157 177 167 169 171 161 139 181 212 239 199 147 150 143 183 211 283 379 387 379 387 320 194 172 144 147 144 133
197 209 202 153 189 172 183 172 177 182 190 191 225 232 233 228 204 185 162 164 162 140 141 185 209 227 166 169 225 298 334 363 420 420 382 369 150 113 124 120 142 134 110 113
181 142 155 179 191 183 161 191 212 187 150 216 181 207 240 249 227 196 157 189 188 158 220 230 237 238 211 234 278 317 352 374 371 267 107 84 113 106 113 110 105 97 89 99
283 226 213 188 192 164 174 224 222 219 252 213 186 177 167 182 183 214 216 198 228 251 233 265 290 277 238 261 320 325 220 173 122 110 104 111 105 90 83 77 69 75 76 76
250 302 229 184 184 216 258 269 251 248 202 155 151 154 134 165 173 184 197 234 283 268 295 328 264 232 199 209 183 193 179 151 128 110 99 89 71 62 56 60 61 81 82 87
156 174 221 222 186 177 139 163 179 211 197 198 210 207 185 188 181 199 259 303 348 365 438 381 307 207 131 159 118 109 93 90 96 71 60 53 51 61 59 62 69 93 120 132
107 111 95 91 136 142 132 130 142 123 124 143 153 174 188 239 269 313 344 369 463 422 394 292 156 128 100 110 101 89 85 77 59 50 53 56 61 62 65 80 96 122 149 148
119 126 137 113 132 119 105 95 99 87 106 138 148 187 191 191 233 295 338 398 337 238 103 1 -52 -37 29 63 72 80 77 52 46 54 55 60 57 70 96 91 102 153 164 136

GFSNW_con_3kmhel_042.txt.gz
Helicity
65 81 81 76 71 111 153 194 175 206 170 140 100 25 63 79 117 75 88 68 57 53 86 99 101 60 56 83 84 84 86 59 71 66 50 49 39 42 61 63 53 85 92 45
68 84 91 78 82 90 189 181 182 226 153 83 100 62 90 113 134 115 105 78 51 60 80 79 77 65 74 71 75 63 72 84 95 97 79 75 57 77 98 117 120 93 114 50
78 88 99 84 87 90 179 178 178 223 150 92 41 83 111 137 128 105 96 78 77 90 113 118 58 77 73 69 63 81 92 87 58 -16 29 63 67 94 111 136 122 103 118 123
89 103 89 107 104 113 187 186 148 166 128 118 69 91 91 107 82 84 102 94 91 86 92 93 76 68 72 80 68 77 71 66 88 94 97 76 63 73 104 121 130 124 87 118
106 85 102 131 125 149 176 141 126 199 115 138 88 123 103 84 96 91 80 72 98 100 65 35 6 49 42 38 83 81 97 62 93 77 120 129 63 60 106 133 154 117 133 99
81 95 128 132 125 188 182 167 171 125 170 183 144 136 114 76 79 107 92 54 92 94 66 67 76 71 100 69 67 95 100 99 100 64 114 113 14 96 165 194 206 201 196 127
92 109 131 130 114 195 173 147 138 144 142 167 149 136 157 104 71 53 110 115 101 60 64 109 159 200 175 175 171 105 97 128 132 83 109 92 79 107 87 141 150 203 183 154
85 110 130 127 112 168 163 144 114 115 121 151 159 155 194 211 186 131 126 137 85 43 119 113 116 125 108 121 141 149 110 120 132 115 103 102 76 114 149 160 104 170 177 199
101 126 126 115 110 149 157 116 89 77 86 145 157 169 187 175 160 172 144 131 148 117 113 122 88 56 56 81 100 125 146 162 156 168 148 102 70 89 121 168 156 124 206 199
140 146 126 126 107 91 85 100 85 90 102 218 154 141 159 151 193 172 143 158 111 116 134 137 103 80 73 66 67 83 132 143 148 206 179 133 81 135 170 202 73 90 121 144
157 155 148 120 94 106 118 134 76 84 117 230 180 166 140 148 170 160 114 220 134 144 147 117 82 86 69 103 105 81 94 111 109 175 194 119 115 198 133 86 107 88 91 151
153 164 148 141 121 111 209 161 101 88 131 180 193 175 173 135 112 129 162 99 97 96 152 134 131 135 139 141 111 150 122 123 127 131 112 97 24 92 105 124 138 136 162 201
155 173 146 129 113 109 112 89 94 134 163 205 193 221 236 216 137 97 119 140 99 129 121 112 132 146 140 140 109 140 95 147 177 161 97 102 84 82 107 140 142 158 194 250
172 180 159 150 133 131 149 163 132 115 139 127 172 201 193 252 171 135 116 122 188 161 148 138 131 143 110 135 143 142 101 133 130 124 86 128 89 104 135 168 201 257 293 283
187 139 150 167 171 178 210 169 184 139 90 96 154 171 235 257 186 190 186 178 146 129 132 132 111 129 156 169 177 149 171 173 179 141 99 124 93 108 147 195 206 236 287 329
164 123 133 145 138 148 158 171 168 188 126 89 131 120 158 205 206 224 209 166 141 138 119 119 132 157 156 165 136 80 74 90 114 114 111 121 137 136 166 200 204 245 321 359
132 138 137 131 114 138 138 104 153 185 122 115 129 117 134 142 140 137 148 152 135 135 132 153 152 159 166 173 162 133 150 127 129 135 146 142 134 135 174 233 324 407 473 388
138 141 126 107 85 80 163 230 220 165 102 114 95 106 94 115 102 107 120 121 129 158 152 150 152 161 174 125 102 113 111 99 117 149 144 132 179 255 276 318 393 476 475 305
112 105 103 132 140 127 117 184 158 121 96 105 101 78 59 85 95 99 105 129 137 138 160 169 155 176 152 151 144 142 130 116 105 164 193 246 296 318 397 525 549 358 187 118
133 145 147 143 112 125 118 117 113 138 146 136 103 94 98 94 105 122 123 138 143 147 130 145 176 192 199 181 139 101 85 110 177 235 249 331 411 516 408 212 143 160 135 94
178 182 170 107 145 97 98 106 122 141 142 129 131 132 136 144 136 142 146 141 136 134 140 161 185 167 193 187 193 198 227 285 338 348 313 241 207 185 193 230 178 93 45 43
163 95 129 149 154 140 136 164 139 128 100 135 126 148 186 192 159 153 140 169 159 153 176 220 188 193 213 215 218 229 218 250 279 239 220 213 213 181 146 86 39 28 49 71
178 125 107 94 116 151 150 156 160 141 159 145 132 154 148 160 168 176 149 146 169 212 229 231 245 233 253 248 255 277 268 255 262 253 208 157 113 63 38 33 43 60 62 61
175 188 194 184 175 191 204 184 159 153 136 142 144 154 148 144 154 154 154 178 201 202 227 229 234 224 198 220 212 221 202 196 187 146 101 79 59 42 32 27 42 58 55 52
185 189 158 208 190 180 142 155 171 158 131 151 171 158 155 158 171 172 191 206 229 219 244 248 221 256 211 227 224 204 163 110 83 62 56 42 32 30 31 44 49 54 67 75
184 183 170 165 174 149 185 208 193 183 183 183 168 153 156 182 212 228 234 270 247 210 191 170 202 247 247 193 139 104 91 84 61 47 42 42 42 47 58 63 60 62 67 78
227 269 248 184 193 165 121 105 102 91 128 157 146 183 146 144 176 197 210 194 144 128 134 183 267 259 204 139 102 92 86 82 64 58 74 79 85 81 83 86 77 82 94 120

GFSNW_con_3kmhel_045.txt.gz
Helicity
106 98 97 61 80 123 133 193 220 156 165 154 145 61 46 58 49 48 75 58 60 69 78 68 75 61 78 80 97 82 93 67 61 58 50 48 52 51 56 54 30 68 67 36
100 110 69 70 76 118 212 233 248 218 173 140 162 73 74 88 64 76 82 73 64 78 79 65 90 85 84 75 70 70 75 84 86 73 58 69 57 61 83 103 95 63 87 63
73 77 54 74 78 33 192 245 274 265 166 160 97 81 99 106 93 94 92 97 86 80 84 88 54 73 73 79 76 102 112 92 59 30 40 55 72 76 103 122 96 109 130 104
76 67 71 91 83 56 199 248 254 238 160 149 103 77 64 112 133 115 111 119 69 50 53 87 68 68 84 95 75 93 76 53 82 84 87 78 66 54 84 96 138 122 106 125
78 39 93 95 85 102 170 213 247 259 160 147 105 111 96 117 124 122 104 63 79 86 57 51 48 75 57 56 92 88 88 48 75 77 101 110 64 46 71 90 127 105 167 101
70 77 104 92 82 140 151 225 231 184 213 188 140 110 112 116 105 136 120 45 79 95 95 98 89 95 125 87 72 103 92 87 90 67 104 112 43 36 126 177 201 192 172 141
75 88 104 92 92 129 181 191 196 165 159 150 125 106 98 112 106 69 110 102 72 69 79 115 176 206 185 177 160 106 90 122 115 78 96 83 86 116 118 87 112 163 190 154
82 111 109 93 71 116 162 177 165 136 109 141 147 130 139 173 195 142 98 105 92 50 143 144 130 124 107 120 142 145 109 104 103 83 91 83 76 106 122 117 91 108 120 172
103 113 101 82 64 133 172 194 142 118 93 117 131 184 185 173 190 184 127 139 169 120 142 136 100 68 76 75 84 117 140 145 125 115 83 55 57 68 73 86 94 88 127 148
94 93 82 74 68 145 192 174 153 109 97 148 153 168 187 206 227 201 181 180 122 125 145 140 107 96 97 75 64 73 123 137 124 157 117 94 68 113 104 147 85 62 34 84
78 85 86 76 66 138 199 181 173 105 103 170 181 180 158 194 213 185 166 230 147 149 142 122 95 103 86 100 93 72 85 100 92 137 132 59 76 106 99 72 72 81 49 90
90 86 70 72 53 118 157 157 153 120 140 151 198 166 150 145 144 171 193 112 111 98 156 124 106 121 115 108 79 107 86 94 100 92 97 91 29 47 89 107 109 127 133 136
80 67 71 87 86 123 141 164 173 112 175 260 205 234 209 183 152 141 153 156 101 132 129 103 116 125 115 122 88 107 75 127 134 121 80 65 41 71 108 140 133 127 131 150
96 86 100 63 100 155 164 141 113 44 106 136 247 220 201 260 172 126 119 126 174 159 148 139 129 138 96 123 135 117 99 108 107 100 65 96 87 89 107 124 150 170 191 215
118 130 133 122 140 162 318 235 120 48 65 99 185 227 259 283 198 188 192 189 166 145 151 144 129 126 143 157 149 106 131 129 133 98 89 101 94 97 98 123 145 193 267 345
161 169 162 156 160 237 222 127 71 121 87 93 156 158 190 241 258 284 260 206 162 145 129 121 133 149 154 159 118 84 89 96 96 107 96 93 108 111 118 149 190 241 306 348
147 146 134 124 116 151 126 82 121 155 122 101 129 144 166 184 170 167 181 177 143 135 133 157 159 160 164 163 127 136 136 126 119 125 99 119 144 148 180 220 267 386 436 492
117 113 128 119 103 113 214 321 283 142 106 134 115 128 125 163 131 129 145 131 135 158 138 138 153 153 157 114 132 143 139 129 135 139 129 133 171 228 267 321 419 495 419 249
136 141 95 158 199 170 162 225 196 164 115 115 114 88 76 96 96 104 109 123 128 114 146 158 139 153 140 149 129 151 150 142 127 175 195 222 275 295 358 393 386 289 204 166
118 126 136 173 178 206 186 171 149 159 166 136 92 93 93 90 100 116 109 122 122 134 132 133 165 182 179 167 139 104 89 98 150 204 201 234 296 301 256 216 199 187 181 125
142 178 186 171 166 136 141 138 141 152 127 109 95 92 89 110 95 113 125 120 118 130 143 154 174 164 161 176 190 169 176 192 214 225 200 211 196 174 157 150 150 124 82 51
129 107 169 176 190 151 143 167 153 124 104 113 101 117 127 142 139 131 130 153 155 156 182 191 154 160 189 184 176 165 155 159 143 129 123 128 144 136 131 104 68 46 38 35
161 226 244 207 208 171 158 130 149 132 105 98 110 141 134 130 142 164 147 155 189 168 185 191 212 209 195 186 181 163 128 129 136 147 154 146 116 69 55 63 56 40 39 41
105 149 179 119 106 121 121 114 107 101 105 130 139 149 126 135 153 139 162 174 158 176 181 197 191 166 208 162 139 123 134 159 150 121 96 91 88 77 49 42 44 53 54 54
102 110 108 131 122 133 125 131 123 132 124 141 145 132 130 139 146 146 167 162 164 147 137 137 145 129 160 167 153 152 135 119 117 99 90 72 55 50 50 70 71 65 54 56
149 176 147 144 177 159 145 145 148 156 155 151 153 137 132 158 161 174 168 179 161 131 125 129 155 162 156 165 166 161 138 118 102 83 75 74 75 66 67 67 67 58 57 60
143 156 178 152 160 143 147 149 147 136 154 155 144 173 162 145 181 189 153 143 105 87 120 126 143 177 174 165 156 120 106 118 113 105 104 91 74 58 64 75 72 56 43 48

GFSNW_con_3kmhel_048.txt.gz
Helicity
-59 19 133 133 141 97 131 117 149 78 109 142 133 43 -0 63 50 36 70 77 43 17 21 26 17 17 84 95 94 80 112 88 64 46 73 79 72 38 35 45 32 57 45 29
-27 134 220 175 122 101 203 150 166 194 279 113 105 111 26 63 42 39 64 62 57 63 48 47 51 61 107 95 81 81 88 87 57 40 39 46 39 46 57 74 66 32 51 52
-80 96 173 142 111 47 200 174 235 282 213 205 87 75 16 65 60 61 87 87 80 69 67 75 59 82 110 105 102 94 77 89 50 10 45 58 37 65 51 33 74 62 50 36
-62 226 259 129 110 64 254 221 205 232 115 153 129 58 62 65 56 88 83 90 51 50 59 58 55 66 72 80 78 83 81 44 58 61 60 46 53 39 39 30 20 69 33 43
-179 147 258 83 87 133 219 226 228 274 112 171 115 71 79 70 81 92 79 69 60 47 31 16 36 56 51 62 70 74 84 44 58 50 56 67 56 52 30 26 25 25 10 25
-330 140 252 66 104 195 215 223 221 218 219 186 121 105 72 82 62 115 135 54 95 74 78 102 119 110 118 89 63 91 81 61 46 36 69 60 28 29 69 86 94 82 76 55
-9 301 153 74 88 119 253 208 239 229 212 148 99 82 84 69 96 86 140 124 89 89 115 152 184 167 149 125 133 111 83 98 96 51 56 52 78 76 93 56 35 59 46 115
247 295 121 76 87 45 226 144 189 204 216 117 114 96 115 88 125 165 130 141 101 60 141 125 108 114 97 108 133 117 105 109 90 72 59 63 22 78 77 76 66 61 36 79
296 132 95 94 60 7 198 186 138 156 151 147 96 122 129 138 148 162 153 135 104 118 131 123 84 59 65 58 80 122 128 130 113 106 57 32 88 86 88 64 54 93 66 75
141 109 104 64 51 21 172 160 152 157 137 136 156 114 123 167 179 171 151 126 110 128 127 125 99 83 106 65 61 60 106 129 110 123 93 77 83 112 81 88 137 89 35 35
88 86 66 60 58 63 160 165 140 129 134 157 185 172 164 187 172 156 138 164 144 151 136 125 105 90 94 89 95 69 73 88 97 121 97 51 100 83 88 122 94 113 101 108
74 72 66 63 74 110 139 140 159 153 130 121 131 162 169 211 194 201 135 170 139 136 161 152 127 119 111 99 72 83 78 103 102 80 108 118 48 68 105 113 133 153 165 146
81 90 75 72 77 110 170 132 144 135 118 121 155 172 187 183 207 211 179 173 137 156 179 127 124 118 101 106 82 96 77 97 118 101 79 50 39 59 82 88 100 121 133 133
82 73 75 88 74 148 148 153 145 116 149 106 155 200 179 220 192 154 157 116 189 173 173 162 131 123 92 113 120 106 118 72 76 80 58 71 110 124 117 111 118 128 143 148
92 102 98 94 150 112 147 172 163 110 116 126 199 197 208 213 144 120 114 134 173 176 168 149 145 141 133 143 133 107 91 106 107 117 146 123 144 129 120 122 145 169 190 249
82 80 104 189 166 131 200 199 142 144 58 132 172 205 236 248 209 242 265 236 210 187 165 161 164 141 134 138 122 136 136 126 126 138 120 124 132 138 135 166 189 234 286 306
119 161 232 234 190 128 147 108 97 123 68 62 121 159 201 271 270 253 258 247 203 170 158 166 149 147 151 154 133 151 153 146 140 133 104 126 194 165 201 257 297 344 365 356
188 187 140 117 139 105 142 253 128 62 48 68 74 114 144 201 176 170 193 166 165 189 155 154 165 165 165 124 180 180 169 153 176 185 184 186 178 214 238 255 283 335 285 214
122 121 119 200 204 174 191 283 183 88 93 75 102 97 89 156 150 150 145 155 155 136 159 162 130 139 127 165 158 186 174 162 148 160 183 191 200 198 221 263 250 192 139 118
240 216 222 196 191 270 191 172 152 146 146 128 104 133 115 132 139 152 135 138 136 138 137 129 157 166 184 177 156 148 139 125 149 186 160 161 190 181 147 138 141 154 140 123
332 261 253 231 247 163 145 142 138 140 132 127 121 130 132 136 112 126 139 112 119 125 127 129 141 134 153 164 159 164 153 128 116 155 143 127 114 122 141 152 153 143 115 88
125 101 186 165 143 115 100 157 156 141 126 116 128 133 121 120 115 113 123 129 127 140 147 159 140 171 188 171 160 166 146 137 144 137 133 143 163 160 154 146 129 111 91 71
229 235 193 172 156 141 126 129 151 116 95 116 114 141 130 121 135 139 125 133 175 157 177 193 219 191 152 147 133 138 135 143 141 157 167 165 172 163 147 133 119 88 99 91
210 232 223 181 151 151 128 157 149 138 125 143 146 161 124 133 155 148 172 184 166 181 176 184 151 154 167 147 137 140 154 157 175 182 170 168 157 151 135 116 98 95 94 77
164 198 223 148 130 104 136 157 136 150 134 148 169 179 168 183 175 166 175 162 182 170 168 126 98 135 162 165 168 189 199 180 177 166 168 159 142 131 112 100 96 81 65 64
134 124 110 81 111 118 129 150 145 138 142 153 146 146 159 173 167 166 179 185 181 151 140 114 129 178 187 198 191 179 170 173 177 161 146 131 121 114 107 90 89 67 64 56
113 124 175 138 147 145 138 109 113 120 156 170 134 146 162 153 163 183 187 198 159 123 105 119 148 149 159 168 171 165 162 162 149 139 134 120 106 98 97 99 90 68 56 49

GFSNW_con_3kmhel_051.txt.gz
Helicity
109 151 112 84 185 191 199 210 252 94 85 208 102 17 -24 -12 -7 31 34 29 7 23 29 30 24 18 11 55 73 28 55 44 25 -10 93 82 99 45 34 49 31 37 62 64
118 128 66 4 218 215 255 259 226 136 85 211 128 14 -18 -7 -6 22 24 14 21 39 38 34 31 29 129 77 70 71 78 55 37 60 51 53 42 25 39 31 95 40 63 47
97 88 -25 -13 222 139 203 261 262 226 195 95 64 6 9 28 55 98 44 15 25 52 42 41 36 41 76 89 100 141 120 38 64 8 28 64 22 11 24 38 44 31 -21 27
73 59 -21 1 193 83 227 256 204 204 251 89 48 11 40 -7 40 102 47 46 31 37 48 25 43 49 68 78 96 88 95 57 28 32 70 71 73 43 27 0 1 -33 19 21
51 60 -38 52 196 113 205 299 203 110 153 127 70 16 -31 4 36 53 50 47 24 21 35 29 18 38 47 53 53 59 71 58 71 56 47 40 39 24 24 27 15 -21 -20 -27
42 40 -110 106 114 180 199 221 81 151 199 92 89 59 7 37 20 90 96 22 17 45 80 127 118 103 85 85 53 44 54 66 50 45 79 73 40 9 6 3 18 40 36 40
43 7 -163 199 273 155 213 233 167 160 205 112 67 31 41 61 49 51 65 78 49 114 76 103 132 146 128 113 138 84 59 47 97 62 49 37 47 65 68 58 21 22 44 45
7 -84 -362 79 195 118 227 145 176 166 244 81 79 57 66 65 114 80 73 180 148 43 64 90 87 94 95 86 95 80 84 93 87 80 41 50 33 73 52 57 51 103 85 72
-41 -73 -108 218 290 124 146 161 158 186 191 138 79 107 91 172 155 133 142 115 162 143 99 95 62 39 22 37 56 105 105 100 90 101 79 43 102 107 75 62 41 175 111 106
-42 -235 150 342 227 124 54 147 124 142 108 100 63 136 137 125 120 144 158 117 133 154 110 107 99 60 86 57 41 44 99 117 100 91 96 80 128 107 80 74 184 145 91 95
-168 -81 268 226 200 74 -2 185 100 156 135 165 183 91 112 153 115 170 124 164 146 112 98 83 79 88 71 86 57 54 58 72 80 119 110 56 132 133 133 166 115 133 122 159
43 274 189 214 141 -14 -15 201 76 122 141 143 236 280 238 244 190 133 81 96 62 74 88 101 120 129 122 108 57 76 72 73 88 82 88 145 92 156 155 132 135 143 151 180
277 255 209 132 75 -25 42 221 152 120 109 120 140 190 214 189 282 292 153 161 125 111 164 118 120 118 104 107 79 74 84 106 109 108 106 110 118 120 126 140 129 126 115 104
158 129 124 106 66 33 120 170 139 132 136 121 126 99 147 188 174 162 211 153 187 150 156 168 153 126 100 98 117 80 129 93 84 95 83 116 186 193 177 153 127 123 128 132
120 126 99 85 51 106 160 132 156 144 128 107 113 82 162 176 132 140 119 84 144 182 203 195 186 164 128 132 132 102 96 109 109 128 190 168 248 173 133 131 144 161 182 219
92 90 91 84 109 158 209 191 101 125 129 72 144 127 159 180 175 195 201 191 225 216 216 210 193 145 130 114 118 179 161 135 170 208 167 181 169 156 150 184 211 247 260 263
83 82 79 93 170 143 143 102 131 105 120 66 124 172 172 212 171 226 207 240 248 245 220 206 170 157 160 165 134 172 149 163 162 156 124 142 185 190 218 222 230 265 268 259
98 115 155 221 260 96 63 101 131 230 111 117 183 195 208 272 250 247 267 249 247 263 203 178 168 166 180 159 213 202 160 168 181 192 224 283 219 208 217 217 203 223 224 204
163 221 265 315 168 95 101 115 176 199 169 105 130 156 149 202 218 234 236 239 206 167 185 180 143 164 162 200 208 194 174 179 175 218 216 202 205 207 182 182 167 169 133 119
219 235 258 203 147 152 148 177 121 105 61 54 86 100 106 182 192 191 172 179 150 147 160 148 177 190 173 194 194 179 167 157 188 168 174 182 174 165 160 144 164 213 220 186
284 261 236 258 210 259 234 124 94 69 92 71 90 113 115 163 154 173 186 143 142 143 130 137 134 150 144 178 184 182 226 215 184 178 192 185 159 154 197 212 200 186 178 174
177 172 252 223 185 208 139 160 111 96 80 98 130 149 165 162 164 139 156 147 132 136 106 138 155 165 171 186 187 196 199 185 202 195 197 211 223 205 196 185 177 170 157 145
287 288 255 184 158 132 106 114 127 98 100 103 141 166 151 146 134 130 111 125 137 118 144 148 202 185 212 208 186 187 187 193 187 205 203 197 204 201 184 183 177 141 144 130
317 288 190 152 156 112 103 125 122 122 99 138 170 180 142 136 151 134 138 155 139 149 159 172 169 178 193 160 139 151 184 189 186 185 182 182 182 186 172 151 131 134 136 113
240 171 124 121 99 124 122 144 160 212 176 160 158 172 144 156 138 143 144 143 154 151 164 146 159 172 143 135 166 173 181 181 185 188 196 182 150 146 151 144 140 125 109 99
180 157 119 149 157 147 142 201 206 176 164 191 182 147 155 160 160 161 189 194 208 186 183 165 161 145 130 169 195 197 195 185 183 172 167 168 168 158 147 124 127 94 89 76
185 180 208 159 192 187 156 119 120 135 137 162 149 177 201 173 217 250 242 261 206 202 192 130 121 138 171 184 221 211 187 190 188 192 175 153 143 128 128 130 116 91 83 85

GFSNW_con_3kmhel_057.txt.gz
Helicity
159 200 201 192 208 233 205 376 307 131 240 346 249 151 164 134 23 78 127 76 86 11 -12 -74 61 -1 -16 31 99 86 38 69 58 -61 -45 60 40 17 34 83 45 69 65 33
54 151 156 200 188 213 380 441 406 197 261 265 191 202 112 86 25 77 204 101 76 41 -0 -9 -86 10 116 93 120 109 105 77 88 67 34 54 35 27 55 57 116 92 121 80
75 85 116 139 161 150 326 547 479 296 207 172 164 189 129 60 -16 121 152 73 73 87 84 31 -13 102 137 198 162 131 106 122 93 69 41 49 45 43 32 48 139 105 99 50
67 53 166 84 104 68 224 575 417 463 252 166 225 117 116 58 -17 88 73 73 59 62 115 31 8 66 140 116 117 105 87 75 106 93 53 25 44 85 80 47 13 151 37 58
19 -15 181 94 75 39 167 495 447 366 294 205 240 220 122 53 33 128 126 101 59 51 96 36 -9 78 116 100 99 81 105 95 106 104 110 124 78 143 74 69 98 85 39 41
36 -16 220 104 89 84 225 338 336 269 271 173 226 237 199 93 65 110 154 108 91 53 44 86 86 67 99 91 93 88 103 123 153 122 118 96 65 30 54 60 76 76 52 51
-8 -29 207 105 102 40 254 331 298 357 197 248 145 210 169 100 56 141 113 28 86 47 172 254 314 298 285 149 123 75 107 111 122 101 114 121 32 51 70 43 62 96 136 117
-92 42 163 108 113 23 142 234 283 243 231 170 153 94 119 39 12 116 58 19 61 153 194 195 179 223 219 172 116 124 141 157 137 122 110 65 32 82 66 56 106 108 124 115
22 110 113 102 95 58 31 248 434 306 226 181 148 139 82 59 59 100 28 234 332 214 200 214 161 161 134 132 135 223 232 214 166 151 111 41 28 73 113 107 123 154 181 142
104 78 54 74 87 77 54 -73 235 303 240 199 78 147 147 64 75 141 132 246 265 174 289 225 195 176 108 111 103 89 133 180 174 179 125 82 70 112 103 125 89 171 175 153
59 49 62 42 81 53 -13 -74 188 280 293 181 168 78 141 45 90 211 197 310 245 271 246 189 246 199 168 144 115 91 84 108 101 148 122 62 96 143 111 101 157 157 167 117
27 24 51 65 56 2 -76 -121 -76 170 166 277 88 109 70 53 121 253 190 184 231 116 168 184 233 244 236 157 120 106 125 79 67 82 56 62 137 144 177 209 231 192 164 185
42 61 42 72 60 -195 43 -92 77 184 110 125 161 188 256 204 295 339 279 238 164 234 237 242 228 224 160 166 108 97 139 126 111 113 61 139 342 350 293 242 207 198 209 169
55 65 72 55 20 92 -118 -219 -19 169 305 169 137 364 352 313 334 301 263 393 115 235 249 223 194 169 122 110 75 80 96 165 128 106 239 392 391 370 291 260 262 312 317 277
64 67 60 33 119 15 -130 -202 -114 -42 43 147 237 220 334 247 205 244 197 323 269 256 226 202 191 165 163 166 157 136 143 152 184 155 223 255 283 293 373 414 369 308 303 364
52 36 42 90 84 -215 -174 -360 -277 32 205 165 326 252 348 222 142 174 131 186 67 114 150 183 181 168 142 137 154 180 280 315 210 229 303 376 433 475 406 403 361 320 317 300
56 64 143 194 -17 -200 71 75 33 102 203 126 131 251 278 392 297 293 320 320 288 178 205 200 184 212 189 173 180 240 269 316 326 284 347 354 303 322 359 346 327 324 295 264
50 100 197 52 10 -150 -43 119 145 63 101 92 245 387 304 299 293 243 303 304 276 273 220 242 222 265 260 215 270 321 287 331 379 333 314 394 379 332 290 267 252 269 241 243
146 100 105 194 178 81 -105 76 242 199 85 76 140 218 276 252 254 262 263 230 215 185 213 255 230 256 240 246 286 288 246 230 291 342 398 369 318 273 254 222 187 228 261 283
151 276 294 244 64 178 88 118 197 219 212 167 158 157 159 189 248 224 244 258 213 215 216 276 260 296 295 401 391 298 262 311 363 377 288 270 249 210 248 270 283 285 272 236
332 358 235 135 286 216 174 109 144 196 223 199 137 124 173 188 208 205 218 199 237 211 200 230 230 243 256 247 312 331 363 324 290 226 199 196 241 330 331 335 319 281 243 219
112 232 279 294 143 122 128 141 201 136 146 184 165 156 175 204 335 256 216 218 235 193 165 221 193 164 167 263 288 327 312 337 303 245 261 334 345 299 298 265 246 237 213 191
275 242 231 152 74 189 146 170 125 84 53 108 145 168 144 123 227 252 184 194 186 215 236 214 195 170 190 194 205 237 249 313 449 456 431 432 367 305 259 238 200 193 202 166
145 175 150 126 120 78 91 101 85 55 65 120 193 161 72 99 123 88 181 141 146 125 109 102 109 159 177 185 183 231 344 375 379 367 338 309 292 277 259 226 184 164 160 131
160 130 102 139 53 80 74 95 117 155 71 125 147 128 87 132 91 107 86 80 61 76 87 87 152 187 218 270 274 321 322 305 286 238 238 234 234 236 221 175 153 128 105 108
153 126 91 94 118 135 164 160 183 194 195 141 140 110 113 121 120 122 129 116 99 90 98 133 164 194 276 247 279 312 265 233 214 206 199 198 192 182 161 130 112 88 76 86
173 163 149 139 184 188 191 180 177 199 162 179 106 136 136 119 172 187 187 154 127 129 178 236 260 276 260 272 282 249 213 225 228 224 221 202 168 132 144 162 107 91 100 95